This is the latest recevied weather packets stored in our database for station/object F4NFR-13. If no packets are shown the sender has not sent any weather packets the latest 10 day(s).
| Time | Temp. | Humidity | Pressure | Rain* | Wind** | Luminosity | Snow |
|---|---|---|---|---|---|---|---|
| 1778152903 | 12.78° C | 72% | 1018.4 hPa | 0 mm | - | 135 W/m² | - |
| 1778151995 | 12.78° C | 73% | 1018.4 hPa | 0 mm | - | 117 W/m² | - |
| 1778151693 | 12.22° C | 71% | 1018.4 hPa | 0 mm | - | 114 W/m² | - |
| 1778151390 | 12.22° C | 73% | 1018.4 hPa | 0 mm | - | 113 W/m² | - |
| 1778150788 | 12.78° C | 73% | 1018.4 hPa | 0 mm | - | 106 W/m² | - |
| 1778150786 | 12.78° C | 73% | 1018.4 hPa | 0 mm | - | 106 W/m² | - |
| 1778150484 | 12.78° C | 74% | 1018.4 hPa | 0 mm | - | 104 W/m² | - |
| 1778150182 | 12.78° C | 75% | 1018.4 hPa | 0 mm | - | 106 W/m² | - |
| 1778149878 | 12.22° C | 75% | 1018.4 hPa | 0 mm | - | 118 W/m² | - |
| 1778149577 | 12.22° C | 77% | 1018.4 hPa | 0 mm | - | 126 W/m² | - |
| 1778149274 | 12.78° C | 75% | 1018.4 hPa | 0 mm | - | 138 W/m² | - |
| 1778148972 | 12.78° C | 75% | 1018.4 hPa | 0 mm | - | 138 W/m² | - |
| 1778148669 | 12.78° C | 75% | 1018.4 hPa | 0 mm | - | 143 W/m² | - |
| 1778148367 | 12.78° C | 75% | 1018.4 hPa | 0 mm | - | 142 W/m² | - |
| 1778148065 | 12.22° C | 76% | 1018.4 hPa | 0 mm | - | 144 W/m² | - |
| 1778147762 | 12.22° C | 75% | 1018.4 hPa | 0 mm | - | 141 W/m² | - |
| 1778147461 | 12.78° C | 75% | 1018.4 hPa | 0 mm | - | 133 W/m² | - |
| 1778147158 | 12.78° C | 74% | 1018.1 hPa | 0 mm | - | 135 W/m² | - |
| 1778146855 | 12.22° C | 73% | 1018.1 hPa | 0 mm | - | 144 W/m² | - |
| 1778146553 | 12.22° C | 74% | 1018.1 hPa | 0 mm | - | 151 W/m² | - |
| 1778146250 | 12.78° C | 71% | 1018.1 hPa | 0 mm | - | 163 W/m² | - |
| 1778145949 | 12.78° C | 75% | 1018.1 hPa | 0 mm | - | 164 W/m² | - |
| 1778145646 | 12.78° C | 73% | 1018.1 hPa | 0 mm | - | 163 W/m² | - |
| 1778145344 | 12.78° C | 71% | 1018.1 hPa | 0 mm | - | 159 W/m² | - |
| 1778145042 | 12.22° C | 70% | 1017.8 hPa | 0 mm | - | 163 W/m² | - |
* Rain latest hour (hover to see other rain measurements)
** Current wind speed in m/s (hover to see current wind gust speed)